{"data":{"norad_id":61714,"intl_designator":"2024-196H","name":"STARLINK-32440","alt_names":[],"object_type":"PAYLOAD","status":"ACTIVE","operator":null,"country":"US","launch_date":"2024-10-30","launch_site_code":"AFETR","launch_vehicle":null,"mission":null,"orbit_class":"UNKNOWN","rcs_meters":null,"size_class":null,"mass_kg":null,"dimensions":null,"purposes":["comms"],"wikipedia_slug":null,"has_3d_model":false,"image_url":null,"decayed_at":null,"tle_current":{"epoch":"2026-05-25T03:45:20.533824Z","epoch_age_seconds":57692,"freshness":"FRESH","line1":"1 61714U 24196H   26145.15648766  .00000416  00000+0  26189-4 0  9992","line2":"2 61714  53.1601 106.1826 0001319  86.3704 273.7448 15.30191738 88866","mean_motion":15.30191738,"eccentricity":0.0001319,"inclination_deg":53.1601,"raan_deg":106.1826,"arg_perigee_deg":86.3704,"mean_anomaly_deg":273.7448,"bstar":2.6189e-5,"rev_number":8886,"period_min":94.105853811635,"perigee_km":474.33577798129,"apogee_km":476.14369876487,"semimajor_km":6853.3767383731,"source":"CELESTRAK","updated_at":"2026-05-25T13:38:19.445156Z"}}}